Friday Harbor, WA

11:07 PM PST on February 20, 2017 (GMT -0800)
Friday Harbor

Weather History for KFHR - April, 2013

Change the Weather History Date:

Friday, April 5, 2013

  Actual Average Record
Temperature  
Mean Temperature 50 °F -  
Max Temperature 57 °F 51 °F 63 °F (2007)
Min Temperature 46 °F 36 °F 32 °F (1999)
Degree Days  
Heating Degree Days 14    
Moisture  
Dew Point 47 °F    
Average Humidity 89    
Maximum Humidity 100    
Minimum Humidity 72    
Precipitation  
Precipitation 0.00 in - - ()
Sea Level Pressure  
Sea Level Pressure 29.75 in    
Wind  
Wind Speed 3 mph (SE)    
Max Wind Speed 16 mph    
Max Gust Speed 24 mph    
Visibility 9 miles    
Events Rain    
Averages and records for this station are not official NWS values.
T = Trace of Precipitation, MM = Missing Value Source: NWS Daily Summary

Daily Weather History Graph

Daily Weather History Graph

Search for Another Location

Airport or City:

Trip Planner

Search our weather history database for the weather conditions in past years. The results will help you decide how hot, cold, wet, or windy it might be!

Date:

Astronomy

Apr. 05, 2013 Rise Set
Actual Time 6:41 AM PDT 7:49 PM PDT
Civil Twilight 6:08 AM PDT 8:21 PM PDT
Nautical Twilight 5:30 AM PDT 9:00 PM PDT
Astronomical Twilight 4:49 AM PDT 9:41 PM PDT
Moon 4:13 AM PDT (4/5) 2:59 PM PDT (4/5)
Length of Visible Light 14h 12m
Length of Day
13h 08m
Waning Crescent, 22% of the Moon is Illuminated
Apr 5
Waning Crescent
Apr 10
New
Apr 18
First Quarter
Apr 25
Full
May 2
Last Quarter

Hourly Weather History & Observations

Time (PDT) Temp. Windchill Dew Point Humidity Pressure Visibility Wind Dir Wind Speed Gust Speed Precip Events Conditions
12:42 AM 48.2 °F - 46.4 °F 93% 29.66 in 10.0 mi South 4.6 mph - N/A   Mostly Cloudy
12:53 AM 48.0 °F - 46.0 °F 93% 29.66 in 9.0 mi Calm Calm - N/A   Mostly Cloudy
12:58 AM 48.2 °F - 46.4 °F 93% 29.66 in 9.0 mi SSW 3.5 mph - N/A   Overcast
1:15 AM 46.4 °F 45.2 °F 46.4 °F 100% 29.66 in 10.0 mi Variable 3.5 mph - N/A   Overcast
1:53 AM 48.0 °F - 46.9 °F 96% 29.67 in 10.0 mi Calm Calm - N/A   Overcast
2:12 AM 48.2 °F - 46.4 °F 93% 29.66 in 10.0 mi Calm Calm - N/A   Overcast
2:53 AM 46.9 °F - 46.0 °F 97% 29.67 in 4.0 mi Calm Calm - N/A   Overcast
3:53 AM 46.0 °F - 45.0 °F 96% 29.68 in 5.0 mi Calm Calm - N/A   Overcast
4:36 AM 46.4 °F - 46.4 °F 100% 29.71 in 1.8 mi Calm Calm - 0.00 in Rain Light Rain
4:42 AM 46.4 °F - 46.4 °F 100% 29.71 in 3.0 mi Calm Calm - 0.00 in   Overcast
4:53 AM 46.9 °F - 46.0 °F 97% 29.72 in 3.0 mi Calm Calm - 0.00 in   Overcast
5:53 AM 48.0 °F - 45.0 °F 89% 29.73 in 10.0 mi SW 8.1 mph - 0.00 in Rain Light Rain
6:53 AM 48.0 °F - 43.0 °F 83% 29.75 in 10.0 mi Calm Calm - 0.00 in   Overcast
7:53 AM 48.0 °F - 44.1 °F 86% 29.78 in 10.0 mi Calm Calm - N/A   Overcast
8:53 AM 48.0 °F - 45.0 °F 89% 29.81 in 10.0 mi ESE 6.9 mph - 0.00 in   Overcast
9:53 AM 48.9 °F - 46.9 °F 93% 29.82 in 7.0 mi SSE 9.2 mph - N/A   Overcast
10:01 AM 48.2 °F - 46.4 °F 93% 29.82 in 9.0 mi South 4.6 mph - N/A   Overcast
10:53 AM 51.1 °F - 48.0 °F 89% 29.83 in 10.0 mi Calm Calm - 0.00 in   Overcast
11:34 AM 51.8 °F - 48.2 °F 88% 29.83 in 10.0 mi Calm Calm - 0.00 in   Overcast
11:53 AM 51.1 °F - 48.0 °F 89% 29.83 in 10.0 mi SE 5.8 mph - 0.00 in   Overcast
12:19 PM 53.6 °F - 48.2 °F 82% 29.83 in 10.0 mi Calm Calm - N/A   Overcast
12:53 PM 54.0 °F - 46.9 °F 77% 29.83 in 10.0 mi East 4.6 mph - N/A   Scattered Clouds
1:53 PM 55.9 °F - 48.0 °F 75% 29.83 in 10.0 mi ESE 4.6 mph - N/A   Partly Cloudy
2:53 PM 55.9 °F - 48.0 °F 75% 29.83 in 10.0 mi ESE 4.6 mph - N/A   Partly Cloudy
3:53 PM 55.9 °F - 46.9 °F 72% 29.82 in 10.0 mi Calm Calm - N/A   Scattered Clouds
4:53 PM 55.0 °F - 48.0 °F 77% 29.81 in 10.0 mi Calm Calm - N/A   Mostly Cloudy
5:53 PM 53.1 °F - 48.9 °F 86% 29.78 in 10.0 mi ENE 4.6 mph - 0.00 in Rain Light Rain
6:05 PM 53.6 °F - 48.2 °F 82% 29.78 in 10.0 mi East 5.8 mph - 0.00 in Rain Light Rain
6:31 PM 51.8 °F - 48.2 °F 88% 29.78 in 10.0 mi ESE 3.5 mph - 0.00 in Rain Light Rain
6:51 PM 50.0 °F - 48.2 °F 94% 29.77 in 10.0 mi ESE 4.6 mph - 0.00 in Rain Light Rain
6:53 PM 50.0 °F - 46.9 °F 89% 29.77 in 10.0 mi ESE 3.5 mph - 0.00 in Rain Light Rain
7:00 PM 50.0 °F - 46.4 °F 87% 29.77 in 10.0 mi Calm Calm - 0.00 in Rain Light Rain
7:53 PM 48.9 °F - 46.9 °F 93% 29.76 in 10.0 mi Calm Calm - 0.00 in   Overcast
8:51 PM 48.2 °F - 46.4 °F 93% 29.75 in 10.0 mi East 3.5 mph - N/A   Mostly Cloudy
8:53 PM 48.0 °F - 46.0 °F 93% 29.75 in 10.0 mi East 3.5 mph - N/A   Scattered Clouds
9:21 PM 48.2 °F - 46.4 °F 93% 29.76 in 10.0 mi Calm Calm - N/A   Mostly Cloudy
9:53 PM 48.9 °F - 46.0 °F 90% 29.75 in 10.0 mi SE 4.6 mph - N/A   Overcast
10:45 PM 48.2 °F - 44.6 °F 87% 29.73 in 10.0 mi ESE 9.2 mph - N/A   Overcast
10:53 PM 48.9 °F - 44.1 °F 83% 29.73 in 10.0 mi ESE 11.5 mph - N/A   Overcast
11:53 PM 48.9 °F - 44.1 °F 83% 29.69 in 10.0 mi SE 16.1 mph 24.2 mph N/A   Overcast